User: anonymous   Login
Location: Goheenville
(40.9070°N, 79.3720°W)
Time: 07:08:27
(UTC-04:00)
Language:

NOAA 11 - Orbit

View from above orbital plane
View from above orbital plane
View from above satellite
View from above satellite

Ground track
Ground track

The orbit data is extracted from the following two-line orbital elements,

1 19531U 88089A   17083.77561951 -.00000002 +00000-0 +20360-4 0  9990
2 19531 098.5619 145.6611 0010066 281.5510 078.4533 14.15204739470566
Epoch (UTC): 24 March 2017 18:36:53
Eccentricity: 0.0010066
inclination: 98.5619°
perigee height: 834 km
apogee height: 849 km
right ascension of ascending node: 145.6611°
argument of perigee: 281.5510°
revolutions per day: 14.15204739
mean anomaly at epoch: 78.4533°
orbit number at epoch: 47056

The dashed part of the orbit path shows where the satellite is in the earth's shadow,  

DLR